SCP
-0 -0 -0 0 -0 -0 -0 -0 -0 -0 0 0 0 0 0 0 0 -0 0 0 0 0 0 -0 0 -0 -0 0 -0 -0 0 0 -0 -0 -0 -0 -0 -0 -0 -0 -0 -0 -0 -0 -0 -0 -0 -0 -0
-0 -0 0 0 0 0 -0 -0 -0 -0 -0 0 0 0 0 0 0 0 0 0 0 0 0 0 0 -0 0 0 0 -0 -0 -0 -0 -0 -0 -0 -0 -0 -0 -0 -0 -0 -0 -0 -0 -0 -0 -0 -0
0 0 0 0 0 -0 -0 -0 0 -0 0 0 0 0 0 0 0 0 0 0 0 0 0 0 0 -0 -0 -0 0 -0 -0 -0 -0 -0 -0 -0 -0 -0 -0 -0 -0 -0 -0 0 0 0 0 0 0
0 0 0 0 -0 -0 -0 -0 -0 -0 0 0 0 0 0 0 0 0 0 0 0 0 0 0 0 -0 -0 -0 -0 -0 -0 -0 -0 -0 -0 -0 -0 -0 -0 -0 0 0 0 0 0 0 0 0 0
0 0 0 0 0 0 0 -0 -0 -0 -0 -0 -0 -0 0 0 0 0 0 -0 -0 0 0 -0 0 -0 -0 -0 -0 -0 -0 -0 0 0 0 -0 -0 -0 0 0 0 0 0 0 0 0 0 0 0
0 0 0 0 0 0 0 0 0 0 -0 0 -0 -0 0 0 0 0 0 -0 -0 -0 -0 0 0 0 -0 -0 -0 -0 -0 -0 -0 -0 0 0 0 -0 0 0 0 0 0 0 0 0 0 0 0
0 0 0 0 0 0 0 0 -0 0 0 0 -0 0 -0 0 0 -0 -0 -0 -0 -0 -0 -0 -0 -0 0 0 -0 -0 -0 -0 -0 -0 0 0 0 0 0 0 0 0 0 0 0 0 0 0 0
0 0 0 0 0 0 0 0 0 0 0 0 -0 -0 -0 -0 -0 -0 -0 -0 -0 -0 -0 -0 -0 -0 -0 0 0 0 0 0 0 0 0 0 0 0 0 0 0 0 0 0 0 0 0 0 0
0 0 0 0 0 0 0 0 0 0 0 0 0 -0 -0 -0 -0 -0 -0 0 -0 -0 -0 -0 -0 -0 -0 0 0 0 0 0 0 0 0 0 0 0 0 0 0 0 0 0 0 0 0 0 0
0 0 0 0 0 0 0 0 0 0 0 0 0 0 0 0 -0 -0 -0 0 0 -0 -0 -0 -0 -0 -0 0 0 0 0 0 0 0 0 0 0 0 0 0 0 0 0 0 0 0 0 0 0
0 0 0 0 0 0 0 0 0 0 0 0 0 0 0 0 0 0 -0 0 0 0 0 0 0 -0 -0 0 0 0 0 0 0 0 0 0 0 0 0 0 0 0 0 0 0 0 0 0 0
0 0 0 0 0 0 0 0 0 0 0 0 0 0 0 0 0 0 0 0 0 0 0 0 0 0 0 0 0 0 0 0 0 0 0 0 0 0 0 0 0 0 0 0 0 0 0 0 0
0 0 0 0 0 0 0 0 0 0 0 0 0 0 0 0 0 0 0 0 0 0 0 0 0 0 0 0 0 0 0 0 0 0 0 0 0 0 0 0 0 0 0 0 0 0 0 0 0
0 0 0 0 0 0 0 0 0 0 0 0 0 0 0 0 0 0 0 0 0 0 0 0 0 0 0 0 0 0 0 0 0 0 0 0 0 0 0 0 0 0 0 0 0 0 0 0 0
0 0 0 0 0 0 0 -0 -0 0 0 0 0 0 0 0 0 0 0 0 0 0 0 0 0 0 0 0 0 0 0 0 0 0 0 0 0 0 0 0 0 0 0 0 0 0 0 0 0
0 0 0 0 0 0 0 -0 0 0 0 0 0 0 0 0 0 0 0 0 0 0 0 0 0 0 0 0 0 0 0 0 0 0 0 0 0 0 0 0 0 0 0 0 0 0 0 0 0
0 0 0 0 0 0 0 0 0 0 0 0 0 0 0 0 0 0 0 0 0 0 0 0 0 0 0 0 0 0 0 0 0 0 0 0 0 0 0 0 0 0 0 0 0 0 0 0 0
0 0 0 0 0 0 0 0 0 0 0 0 0 0 0 0 -0 0 0 0 0 0 0 0 0 0 0 0 0 0 0 0 0 0 0 0 0 0 0 0 0 0 0 0 0 0 0 0 0
0 0 0 0 0 0 0 0 0 0 0 0 0 0 0 0 0 0 0 0 0 0 0 0 0 0 0 0 0 0 0 0 0 0 0 0 0 0 0 0 0 0 0 0 0 0 0 0 0
0 0 0 0 0 0 0 0 0 0 0 0 0 0 0 0 0 0 0 0 0 0 0 0 0 0 0 0 0 0 0 0 0 0 0 0 0 0 0 0 0 0 0 0 0 0 0 0 0
0 0 0 0 0 0 0 0 0 -0 0 0 0 0 0 0 0 0 0 0 0 0 0 0 0 0 0 0 0 0 0 0 0 0 0 0 0 0 0 0 0 0 0 0 0 0 0 0 0
0 0 0 0 0 0 0 0 0 0 0 0 0 0 0 0 0 0 0 0 0 0 0 0 0 0 0 0 0 0 0 0 0 0 0 0 0 0 0 0 0 0 0 0 0 0 0 0 0
0 0 0 0 0 0 0 0 0 0 0 0 0 0 0 0 0 0 0 0 0 0 0 0 0 0 0 0 0 0 0 0 0 0 0 0 0 0 0 0 0 0 0 0 0 0 0 0 0
0 0 0 0 0 0 0 0 0 0 0 0 0 0 0 0 0 0 0 0 0 0 0 0 0 0 0 0 0 0 0 0 0 0 0 0 0 0 0 0 0 0 0 0 0 0 0 0 0
0 0 0 0 0 0 0 0 0 0 0 0 0 0 0 0 0 0 0 0 0 0 0 0 0 0 0 0 0 0 0 0 0 0 0 0 0 0 0 0 0 0 0 0 0 0 0 0 0
0 0 0 0 0 0 0 0 0 0 0 0 0 0 0 0 0 0 0 0 0 0 0 0 0 0 0 0 0 0 0 0 0 0 0 0 0 0 0 0 0 0 0 0 0 0 0 0 0
0 0 0 0 0 0 0 0 0 0 0 0 0 0 0 0 0 0 0 0 0 0 0 0 0 0 0 0 0 0 0 0 0 0 0 0 0 0 0 0 0 0 0 0 0 0 0 0 0
0 0 0 0 0 0 0 0 0 0 0 0 0 0 0 0 0 0 0 0 0 0 0 0 0 0 0 0 0 0 0 0 0 0 0 0 0 0 0 0 0 0 0 0 0 0 0 0 0
0 0 0 0 0 0 0 0 0 0 0 0 0 0 0 0 0 0 0 0 0 0 0 0 0 0 0 0 0 0 0 0 0 0 0 0 0 0 0 0 0 0 0 0 0 0 0 0 0
0 0 0 0 0 0 0 0 0 0 0 0 0 0 0 0 0 0 0 0 0 0 0 0 0 0 0 0 0 0 0 0 0 0 0 0 0 0 0 0 0 0 0 0 0 0 0 0 0
Wind_Speed_500mb
34 32 15 4 5 3 9 9 2 7 4 3 5 3 7 7 8 7 3 21 16 22 22 23 20 16 6 5 7 4 11 12 21 14 16 17 12 7 9 16 11 13 15 18 29 26 19 17 13
36 26 8 2 2 7 10 7 8 8 12 9 4 0 1 8 5 4 7 17 19 23 22 22 21 12 6 6 7 5 13 13 10 11 7 10 11 12 15 12 13 15 20 19 21 24 19 18 13
31 19 4 4 2 9 10 6 9 8 9 4 1 4 4 6 3 5 3 12 20 23 21 19 13 7 5 5 5 7 12 14 13 13 12 8 6 9 12 12 13 9 10 16 11 24 20 15 12
24 7 7 4 18 9 7 10 13 9 2 1 2 4 4 3 2 2 3 13 21 23 21 17 11 7 5 5 5 6 11 21 14 15 18 13 10 4 12 13 13 14 9 10 11 17 15 19 17
15 5 3 10 11 7 5 8 8 6 2 5 5 7 5 5 2 3 5 13 19 21 20 16 12 8 4 5 6 5 10 23 23 16 9 12 11 9 7 9 13 10 10 5 7 11 12 18 18
4 4 5 8 11 5 6 4 5 5 3 3 3 2 6 6 1 1 8 15 18 17 16 16 12 10 7 6 5 6 4 16 25 18 12 15 19 16 12 11 15 12 10 6 7 8 12 15 18
7 5 5 6 10 9 5 5 4 4 6 4 1 4 4 9 1 1 11 17 18 18 17 16 15 13 11 9 8 7 7 7 12 21 19 14 18 20 20 17 19 15 15 9 9 8 10 13 16
4 2 6 2 8 7 4 6 2 4 6 3 4 4 7 10 3 2 8 14 15 17 17 18 19 18 16 15 13 11 11 9 10 15 22 23 23 23 22 20 27 22 19 14 15 14 13 13 16
5 5 6 6 8 6 4 6 1 2 4 5 4 2 6 12 5 4 8 10 13 16 17 19 21 21 20 20 20 18 16 16 14 15 16 21 25 27 27 24 25 19 22 24 23 21 20 19 19
3 6 6 2 1 3 5 4 3 4 2 6 4 6 8 11 9 8 10 12 14 16 16 16 19 22 25 26 26 26 24 23 22 21 21 24 25 28 27 27 24 28 27 30 30 29 27 26 24
2 8 4 5 5 3 4 4 2 4 7 4 2 3 8 13 12 14 16 18 20 22 24 22 22 21 24 27 30 33 33 31 30 28 27 27 28 29 30 31 30 29 33 28 32 32 29 27 30
11 6 4 4 4 5 6 4 5 9 1 4 4 6 14 18 15 16 20 23 27 29 31 31 28 31 29 29 31 34 38 38 37 33 33 34 33 31 31 31 31 34 34 34 32 31 31 38 38
13 10 8 6 8 10 9 14 10 14 14 21 19 19 19 11 19 21 23 25 28 32 35 37 40 38 38 38 38 37 40 43 41 40 40 40 39 37 35 34 34 35 35 38 39 39 38 36 40
10 12 8 8 13 10 11 19 6 7 9 9 17 17 18 22 19 18 21 24 31 39 43 44 46 47 47 46 45 45 44 44 45 47 46 45 44 43 42 40 39 39 37 37 40 40 42 44 43
10 12 10 18 13 9 4 24 20 26 27 26 22 19 24 21 21 26 30 39 47 49 52 53 51 52 54 52 51 51 51 49 49 47 46 51 49 48 46 46 44 41 38 39 42 42 43 47 49
13 10 25 13 18 12 11 40 14 12 16 18 16 17 18 25 35 43 53 59 59 63 64 63 61 53 58 57 55 55 55 54 52 50 51 49 51 51 51 53 51 45 41 42 44 45 46 49 52
17 23 22 20 13 7 23 30 9 10 10 15 23 31 36 45 60 58 59 60 65 62 61 66 68 62 55 57 57 57 58 58 56 52 53 56 53 51 53 56 56 52 52 50 49 50 50 51 54
27 30 25 25 12 14 27 34 34 37 39 41 42 42 44 54 70 62 56 59 64 60 57 50 57 69 65 60 56 61 63 62 60 57 54 55 56 54 55 56 58 56 58 60 59 59 55 55 55
21 28 34 23 9 9 34 39 38 42 37 38 45 50 52 63 66 57 55 52 58 61 60 57 58 57 64 69 60 57 66 63 62 61 55 51 52 53 55 59 59 59 60 60 62 65 64 64 64
34 32 31 16 8 10 32 47 36 41 46 48 51 51 60 62 52 44 40 52 57 62 60 54 52 56 56 60 60 53 49 57 55 55 54 53 52 52 48 50 52 57 61 61 62 64 67 74 71
40 41 33 31 9 16 24 51 38 29 36 39 39 50 51 52 44 40 51 50 51 49 55 51 48 47 46 47 47 47 42 46 50 52 51 50 47 43 40 40 41 44 48 51 55 57 64 69 69
35 23 21 22 9 18 2 22 28 29 32 29 42 42 42 33 27 34 34 38 34 34 35 39 37 37 39 39 38 39 34 31 26 25 29 34 37 36 38 39 39 41 44 51 52 54 59 60 63
24 14 18 13 15 13 33 17 5 18 14 30 40 28 21 19 13 13 13 16 18 16 15 14 15 21 24 26 28 24 25 21 25 28 27 27 27 27 28 31 34 36 37 41 45 50 56 58 63
17 14 11 14 17 26 38 30 27 26 21 8 8 8 8 5 4 3 3 6 8 11 14 13 10 4 5 11 17 19 19 20 23 26 28 26 27 28 28 31 34 38 38 42 42 45 50 54 59
26 22 8 12 14 21 4 25 35 7 13 21 24 7 10 14 15 16 16 16 17 18 20 24 25 26 22 17 16 16 14 14 15 18 21 25 28 31 30 30 26 26 34 39 40 43 48 49 57
37 31 13 17 21 18 6 22 16 9 3 7 1 17 16 15 19 19 19 20 22 22 24 26 28 31 30 29 27 24 21 19 15 11 7 2 2 6 11 17 22 25 26 30 34 40 43 50 55
21 32 31 13 5 3 14 20 17 21 10 12 21 23 22 19 19 22 23 24 26 26 26 27 28 30 30 30 28 25 22 20 18 15 12 11 10 10 11 13 17 22 27 24 28 31 35 38 49
17 22 9 11 15 14 23 30 26 14 15 17 25 33 31 27 28 27 27 28 27 28 29 29 29 29 29 28 26 25 22 19 16 13 11 11 11 12 14 16 16 17 22 25 28 33 35 42 49
22 20 15 9 14 15 19 22 15 26 19 26 33 32 33 31 32 35 31 30 27 25 24 24 23 22 21 20 19 15 13 10 7 6 7 9 12 14 16 20 23 25 28 30 33 38 43 47 51
41 40 41 17 18 13 21 34 14 14 15 25 29 35 34 33 35 36 32 27 24 22 19 16 15 14 13 11 9 7 8 7 8 11 13 15 18 20 22 23 24 27 31 35 40 43 47 51 56
Wind_Direction_500mb
348 349 351 11 211 114 93 89 39 114 132 46 88 269 357 10 349 26 284 170 169 171 167 163 174 195 229 291 295 267 177 163 159 175 192 217 215 199 142 135 141 127 102 112 130 131 123 114 119
348 353 11 51 219 137 87 71 111 51 100 99 94 115 345 63 35 21 110 167 165 171 170 172 176 192 250 275 281 247 198 186 171 164 160 186 194 190 153 159 132 140 135 132 141 146 145 114 108
346 353 346 50 35 93 100 86 100 107 127 20 313 33 34 36 13 132 128 180 174 170 171 181 185 229 264 285 283 247 218 195 150 167 190 218 182 159 186 158 160 151 145 144 156 159 150 130 139
345 352 54 74 99 72 67 115 121 132 149 137 11 62 46 15 42 207 162 177 172 172 175 183 201 224 269 291 291 255 205 185 175 200 203 213 239 259 204 172 177 172 172 170 163 142 168 157 154
355 4 94 110 96 88 89 108 128 107 83 79 3 66 49 8 69 118 176 173 178 180 185 195 204 215 260 292 298 282 169 193 176 192 179 229 259 255 219 230 203 182 186 163 141 150 154 169 176
19 333 156 140 114 100 112 138 146 113 110 82 18 68 59 343 18 98 168 170 179 188 197 209 219 225 236 256 290 302 197 197 209 200 192 224 231 273 270 266 211 218 217 196 181 177 183 190 204
30 344 83 114 127 143 113 166 190 137 142 109 359 6 82 31 327 140 165 173 188 196 203 214 226 232 242 254 261 268 269 231 203 197 190 221 242 260 271 237 243 232 235 225 237 229 218 218 226
33 313 146 156 161 120 107 180 298 216 102 153 155 46 59 352 0 190 185 188 199 205 214 226 231 234 240 252 257 263 263 256 221 216 204 198 229 246 258 252 237 255 249 249 250 252 248 243 244
13 236 188 167 187 122 139 196 292 243 158 178 200 324 319 329 325 229 212 221 225 226 229 237 242 241 242 246 252 254 256 257 255 247 237 231 221 234 245 253 241 259 263 275 264 256 258 259 259
274 242 190 102 206 146 140 195 159 256 221 177 210 280 329 345 329 277 256 256 258 255 253 252 251 251 248 250 255 251 249 251 251 252 252 252 246 247 254 258 266 250 249 262 274 262 257 259 263
180 247 148 176 193 201 152 169 141 227 238 285 348 100 344 347 333 309 300 287 283 278 272 267 260 255 253 255 258 255 250 247 248 249 253 254 257 260 260 262 264 263 261 251 256 262 267 261 263
211 219 199 159 207 215 197 174 191 224 263 334 244 275 326 327 324 311 301 296 289 286 284 282 270 261 259 261 259 257 253 252 251 251 251 253 255 258 259 262 263 261 260 256 251 258 263 264 266
212 186 209 225 251 262 261 250 270 236 248 272 272 279 299 312 317 317 311 305 302 300 298 291 284 275 268 261 264 261 258 256 258 256 253 252 254 256 258 260 259 260 263 263 262 264 266 268 268
171 190 219 258 251 257 253 266 248 215 206 258 270 268 266 293 291 304 313 314 314 311 306 299 290 284 274 268 263 265 264 261 260 259 258 257 256 256 257 259 261 262 263 266 268 269 270 270 269
166 213 229 231 236 250 215 255 241 250 253 264 260 261 273 271 278 290 291 294 300 301 302 300 297 282 274 270 267 263 265 263 259 263 263 261 260 259 259 260 261 264 265 267 267 266 268 269 271
207 222 237 211 222 235 204 261 242 255 223 248 261 263 267 274 283 282 284 288 292 292 292 286 286 286 271 268 268 267 266 267 264 258 261 263 262 261 262 262 262 265 265 266 267 270 271 273 273
209 239 227 244 204 215 207 266 245 188 225 265 277 281 285 289 284 280 283 289 293 293 292 276 277 277 277 269 263 264 265 266 267 264 258 260 262 262 260 264 267 266 266 265 265 266 269 271 275
224 227 235 235 188 222 242 253 263 266 274 276 278 280 282 282 282 285 288 291 296 295 295 289 273 272 269 269 264 256 257 260 263 264 264 263 265 265 263 263 266 266 267 267 268 269 270 273 273
248 238 241 244 231 254 257 265 269 276 271 273 277 278 278 274 280 288 292 300 299 293 288 284 281 274 270 262 261 260 258 259 261 265 268 268 268 266 265 267 268 270 270 271 269 270 273 274 276
228 237 238 259 222 246 275 272 269 271 266 263 268 273 269 277 285 294 304 300 295 292 291 283 275 268 265 254 256 260 262 261 266 272 272 271 270 269 269 270 271 270 272 272 271 274 276 276 274
227 237 242 248 263 259 291 285 269 251 253 258 254 254 268 278 296 304 305 310 306 299 290 285 274 270 260 259 257 258 256 259 259 263 266 270 275 278 274 273 274 273 273 276 276 272 272 275 277
225 221 246 243 252 257 348 285 294 295 263 247 260 257 268 291 289 299 308 313 318 313 302 291 277 265 256 252 246 250 252 256 261 268 273 277 276 276 273 273 275 274 273 275 276 277 277 280 279
233 165 202 194 229 300 248 274 291 133 255 274 260 264 275 273 287 308 315 332 351 347 340 321 283 257 248 239 234 236 241 249 257 261 270 276 279 284 285 284 288 287 286 286 287 291 289 287 284
192 178 204 221 247 254 252 237 267 250 238 242 267 175 179 210 222 174 106 92 76 69 70 70 71 107 199 225 228 225 230 239 250 257 266 270 274 277 279 282 282 283 284 286 287 285 281 285 287
179 161 201 201 206 243 297 214 252 157 235 303 300 215 166 163 152 147 139 122 111 104 100 99 100 104 108 127 148 159 179 207 235 246 251 258 259 260 262 266 272 283 289 289 289 287 293 293 287
196 193 196 218 222 231 143 232 243 181 338 340 295 147 152 141 147 142 133 122 116 109 103 100 97 99 102 103 103 107 114 115 115 106 102 85 349 315 307 302 292 279 274 276 285 286 284 285 292
186 217 230 274 106 265 227 241 251 218 218 152 148 152 150 145 138 134 130 126 116 112 106 99 97 96 96 95 95 95 92 91 85 77 67 55 37 15 353 336 326 322 312 304 296 289 290 292 296
201 162 164 200 211 222 238 256 251 182 187 169 172 172 168 159 148 142 135 126 118 113 108 107 104 101 97 95 93 92 91 88 83 73 58 42 25 6 352 332 321 309 305 305 300 300 299 295 288
202 210 219 254 225 241 258 252 259 237 195 191 190 185 174 164 156 151 145 136 126 119 114 109 106 103 104 100 95 95 92 80 58 34 21 4 351 334 327 326 327 322 318 313 306 302 299 293 292
219 215 206 213 203 239 263 265 157 181 207 202 191 180 173 167 164 160 156 148 139 132 122 112 108 106 100 91 75 55 31 13 3 359 356 348 345 343 337 332 327 323 317 310 304 300 299 298 296
Wind_Speed_850mb
34 32 15 4 5 3 9 9 2 7 4 3 5 3 7 7 8 7 3 21 16 22 22 23 20 16 6 5 7 4 11 12 21 14 16 17 12 7 9 16 11 13 15 18 29 26 19 17 13
36 26 8 2 2 7 10 7 8 8 12 9 4 0 1 8 5 4 7 17 19 23 22 22 21 12 6 6 7 5 13 13 10 11 7 10 11 12 15 12 13 15 20 19 21 24 19 18 13
31 19 4 4 2 9 10 6 9 8 9 4 1 4 4 6 3 5 3 12 20 23 21 19 13 7 5 5 5 7 12 14 13 13 12 8 6 9 12 12 13 9 10 16 11 24 20 15 12
24 7 7 4 18 9 7 10 13 9 2 1 2 4 4 3 2 2 3 13 21 23 21 17 11 7 5 5 5 6 11 21 14 15 18 13 10 4 12 13 13 14 9 10 11 17 15 19 17
15 5 3 10 11 7 5 8 8 6 2 5 5 7 5 5 2 3 5 13 19 21 20 16 12 8 4 5 6 5 10 23 23 16 9 12 11 9 7 9 13 10 10 5 7 11 12 18 18
4 4 5 8 11 5 6 4 5 5 3 3 3 2 6 6 1 1 8 15 18 17 16 16 12 10 7 6 5 6 4 16 25 18 12 15 19 16 12 11 15 12 10 6 7 8 12 15 18
7 5 5 6 10 9 5 5 4 4 6 4 1 4 4 9 1 1 11 17 18 18 17 16 15 13 11 9 8 7 7 7 12 21 19 14 18 20 20 17 19 15 15 9 9 8 10 13 16
4 2 6 2 8 7 4 6 2 4 6 3 4 4 7 10 3 2 8 14 15 17 17 18 19 18 16 15 13 11 11 9 10 15 22 23 23 23 22 20 27 22 19 14 15 14 13 13 16
5 5 6 6 8 6 4 6 1 2 4 5 4 2 6 12 5 4 8 10 13 16 17 19 21 21 20 20 20 18 16 16 14 15 16 21 25 27 27 24 25 19 22 24 23 21 20 19 19
3 6 6 2 1 3 5 4 3 4 2 6 4 6 8 11 9 8 10 12 14 16 16 16 19 22 25 26 26 26 24 23 22 21 21 24 25 28 27 27 24 28 27 30 30 29 27 26 24
2 8 4 5 5 3 4 4 2 4 7 4 2 3 8 13 12 14 16 18 20 22 24 22 22 21 24 27 30 33 33 31 30 28 27 27 28 29 30 31 30 29 33 28 32 32 29 27 30
11 6 4 4 4 5 6 4 5 9 1 4 4 6 14 18 15 16 20 23 27 29 31 31 28 31 29 29 31 34 38 38 37 33 33 34 33 31 31 31 31 34 34 34 32 31 31 38 38
13 10 8 6 8 10 9 14 10 14 14 21 19 19 19 11 19 21 23 25 28 32 35 37 40 38 38 38 38 37 40 43 41 40 40 40 39 37 35 34 34 35 35 38 39 39 38 36 40
10 12 8 8 13 10 11 19 6 7 9 9 17 17 18 22 19 18 21 24 31 39 43 44 46 47 47 46 45 45 44 44 45 47 46 45 44 43 42 40 39 39 37 37 40 40 42 44 43
10 12 10 18 13 9 4 24 20 26 27 26 22 19 24 21 21 26 30 39 47 49 52 53 51 52 54 52 51 51 51 49 49 47 46 51 49 48 46 46 44 41 38 39 42 42 43 47 49
13 10 25 13 18 12 11 40 14 12 16 18 16 17 18 25 35 43 53 59 59 63 64 63 61 53 58 57 55 55 55 54 52 50 51 49 51 51 51 53 51 45 41 42 44 45 46 49 52
17 23 22 20 13 7 23 30 9 10 10 15 23 31 36 45 60 58 59 60 65 62 61 66 68 62 55 57 57 57 58 58 56 52 53 56 53 51 53 56 56 52 52 50 49 50 50 51 54
27 30 25 25 12 14 27 34 34 37 39 41 42 42 44 54 70 62 56 59 64 60 57 50 57 69 65 60 56 61 63 62 60 57 54 55 56 54 55 56 58 56 58 60 59 59 55 55 55
21 28 34 23 9 9 34 39 38 42 37 38 45 50 52 63 66 57 55 52 58 61 60 57 58 57 64 69 60 57 66 63 62 61 55 51 52 53 55 59 59 59 60 60 62 65 64 64 64
34 32 31 16 8 10 32 47 36 41 46 48 51 51 60 62 52 44 40 52 57 62 60 54 52 56 56 60 60 53 49 57 55 55 54 53 52 52 48 50 52 57 61 61 62 64 67 74 71
40 41 33 31 9 16 24 51 38 29 36 39 39 50 51 52 44 40 51 50 51 49 55 51 48 47 46 47 47 47 42 46 50 52 51 50 47 43 40 40 41 44 48 51 55 57 64 69 69
35 23 21 22 9 18 2 22 28 29 32 29 42 42 42 33 27 34 34 38 34 34 35 39 37 37 39 39 38 39 34 31 26 25 29 34 37 36 38 39 39 41 44 51 52 54 59 60 63
24 14 18 13 15 13 33 17 5 18 14 30 40 28 21 19 13 13 13 16 18 16 15 14 15 21 24 26 28 24 25 21 25 28 27 27 27 27 28 31 34 36 37 41 45 50 56 58 63
17 14 11 14 17 26 38 30 27 26 21 8 8 8 8 5 4 3 3 6 8 11 14 13 10 4 5 11 17 19 19 20 23 26 28 26 27 28 28 31 34 38 38 42 42 45 50 54 59
26 22 8 12 14 21 4 25 35 7 13 21 24 7 10 14 15 16 16 16 17 18 20 24 25 26 22 17 16 16 14 14 15 18 21 25 28 31 30 30 26 26 34 39 40 43 48 49 57
37 31 13 17 21 18 6 22 16 9 3 7 1 17 16 15 19 19 19 20 22 22 24 26 28 31 30 29 27 24 21 19 15 11 7 2 2 6 11 17 22 25 26 30 34 40 43 50 55
21 32 31 13 5 3 14 20 17 21 10 12 21 23 22 19 19 22 23 24 26 26 26 27 28 30 30 30 28 25 22 20 18 15 12 11 10 10 11 13 17 22 27 24 28 31 35 38 49
17 22 9 11 15 14 23 30 26 14 15 17 25 33 31 27 28 27 27 28 27 28 29 29 29 29 29 28 26 25 22 19 16 13 11 11 11 12 14 16 16 17 22 25 28 33 35 42 49
22 20 15 9 14 15 19 22 15 26 19 26 33 32 33 31 32 35 31 30 27 25 24 24 23 22 21 20 19 15 13 10 7 6 7 9 12 14 16 20 23 25 28 30 33 38 43 47 51
41 40 41 17 18 13 21 34 14 14 15 25 29 35 34 33 35 36 32 27 24 22 19 16 15 14 13 11 9 7 8 7 8 11 13 15 18 20 22 23 24 27 31 35 40 43 47 51 56
Wind_Direction_850mb
348 349 351 11 211 114 93 89 39 114 132 46 88 269 357 10 349 26 284 170 169 171 167 163 174 195 229 291 295 267 177 163 159 175 192 217 215 199 142 135 141 127 102 112 130 131 123 114 119
348 353 11 51 219 137 87 71 111 51 100 99 94 115 345 63 35 21 110 167 165 171 170 172 176 192 250 275 281 247 198 186 171 164 160 186 194 190 153 159 132 140 135 132 141 146 145 114 108
346 353 346 50 35 93 100 86 100 107 127 20 313 33 34 36 13 132 128 180 174 170 171 181 185 229 264 285 283 247 218 195 150 167 190 218 182 159 186 158 160 151 145 144 156 159 150 130 139
345 352 54 74 99 72 67 115 121 132 149 137 11 62 46 15 42 207 162 177 172 172 175 183 201 224 269 291 291 255 205 185 175 200 203 213 239 259 204 172 177 172 172 170 163 142 168 157 154
355 4 94 110 96 88 89 108 128 107 83 79 3 66 49 8 69 118 176 173 178 180 185 195 204 215 260 292 298 282 169 193 176 192 179 229 259 255 219 230 203 182 186 163 141 150 154 169 176
19 333 156 140 114 100 112 138 146 113 110 82 18 68 59 343 18 98 168 170 179 188 197 209 219 225 236 256 290 302 197 197 209 200 192 224 231 273 270 266 211 218 217 196 181 177 183 190 204
30 344 83 114 127 143 113 166 190 137 142 109 359 6 82 31 327 140 165 173 188 196 203 214 226 232 242 254 261 268 269 231 203 197 190 221 242 260 271 237 243 232 235 225 237 229 218 218 226
33 313 146 156 161 120 107 180 298 216 102 153 155 46 59 352 0 190 185 188 199 205 214 226 231 234 240 252 257 263 263 256 221 216 204 198 229 246 258 252 237 255 249 249 250 252 248 243 244
13 236 188 167 187 122 139 196 292 243 158 178 200 324 319 329 325 229 212 221 225 226 229 237 242 241 242 246 252 254 256 257 255 247 237 231 221 234 245 253 241 259 263 275 264 256 258 259 259
274 242 190 102 206 146 140 195 159 256 221 177 210 280 329 345 329 277 256 256 258 255 253 252 251 251 248 250 255 251 249 251 251 252 252 252 246 247 254 258 266 250 249 262 274 262 257 259 263
180 247 148 176 193 201 152 169 141 227 238 285 348 100 344 347 333 309 300 287 283 278 272 267 260 255 253 255 258 255 250 247 248 249 253 254 257 260 260 262 264 263 261 251 256 262 267 261 263
211 219 199 159 207 215 197 174 191 224 263 334 244 275 326 327 324 311 301 296 289 286 284 282 270 261 259 261 259 257 253 252 251 251 251 253 255 258 259 262 263 261 260 256 251 258 263 264 266
212 186 209 225 251 262 261 250 270 236 248 272 272 279 299 312 317 317 311 305 302 300 298 291 284 275 268 261 264 261 258 256 258 256 253 252 254 256 258 260 259 260 263 263 262 264 266 268 268
171 190 219 258 251 257 253 266 248 215 206 258 270 268 266 293 291 304 313 314 314 311 306 299 290 284 274 268 263 265 264 261 260 259 258 257 256 256 257 259 261 262 263 266 268 269 270 270 269
166 213 229 231 236 250 215 255 241 250 253 264 260 261 273 271 278 290 291 294 300 301 302 300 297 282 274 270 267 263 265 263 259 263 263 261 260 259 259 260 261 264 265 267 267 266 268 269 271
207 222 237 211 222 235 204 261 242 255 223 248 261 263 267 274 283 282 284 288 292 292 292 286 286 286 271 268 268 267 266 267 264 258 261 263 262 261 262 262 262 265 265 266 267 270 271 273 273
209 239 227 244 204 215 207 266 245 188 225 265 277 281 285 289 284 280 283 289 293 293 292 276 277 277 277 269 263 264 265 266 267 264 258 260 262 262 260 264 267 266 266 265 265 266 269 271 275
224 227 235 235 188 222 242 253 263 266 274 276 278 280 282 282 282 285 288 291 296 295 295 289 273 272 269 269 264 256 257 260 263 264 264 263 265 265 263 263 266 266 267 267 268 269 270 273 273
248 238 241 244 231 254 257 265 269 276 271 273 277 278 278 274 280 288 292 300 299 293 288 284 281 274 270 262 261 260 258 259 261 265 268 268 268 266 265 267 268 270 270 271 269 270 273 274 276
228 237 238 259 222 246 275 272 269 271 266 263 268 273 269 277 285 294 304 300 295 292 291 283 275 268 265 254 256 260 262 261 266 272 272 271 270 269 269 270 271 270 272 272 271 274 276 276 274
227 237 242 248 263 259 291 285 269 251 253 258 254 254 268 278 296 304 305 310 306 299 290 285 274 270 260 259 257 258 256 259 259 263 266 270 275 278 274 273 274 273 273 276 276 272 272 275 277
225 221 246 243 252 257 348 285 294 295 263 247 260 257 268 291 289 299 308 313 318 313 302 291 277 265 256 252 246 250 252 256 261 268 273 277 276 276 273 273 275 274 273 275 276 277 277 280 279
233 165 202 194 229 300 248 274 291 133 255 274 260 264 275 273 287 308 315 332 351 347 340 321 283 257 248 239 234 236 241 249 257 261 270 276 279 284 285 284 288 287 286 286 287 291 289 287 284
192 178 204 221 247 254 252 237 267 250 238 242 267 175 179 210 222 174 106 92 76 69 70 70 71 107 199 225 228 225 230 239 250 257 266 270 274 277 279 282 282 283 284 286 287 285 281 285 287
179 161 201 201 206 243 297 214 252 157 235 303 300 215 166 163 152 147 139 122 111 104 100 99 100 104 108 127 148 159 179 207 235 246 251 258 259 260 262 266 272 283 289 289 289 287 293 293 287
196 193 196 218 222 231 143 232 243 181 338 340 295 147 152 141 147 142 133 122 116 109 103 100 97 99 102 103 103 107 114 115 115 106 102 85 349 315 307 302 292 279 274 276 285 286 284 285 292
186 217 230 274 106 265 227 241 251 218 218 152 148 152 150 145 138 134 130 126 116 112 106 99 97 96 96 95 95 95 92 91 85 77 67 55 37 15 353 336 326 322 312 304 296 289 290 292 296
201 162 164 200 211 222 238 256 251 182 187 169 172 172 168 159 148 142 135 126 118 113 108 107 104 101 97 95 93 92 91 88 83 73 58 42 25 6 352 332 321 309 305 305 300 300 299 295 288
202 210 219 254 225 241 258 252 259 237 195 191 190 185 174 164 156 151 145 136 126 119 114 109 106 103 104 100 95 95 92 80 58 34 21 4 351 334 327 326 327 322 318 313 306 302 299 293 292
219 215 206 213 203 239 263 265 157 181 207 202 191 180 173 167 164 160 156 148 139 132 122 112 108 106 100 91 75 55 31 13 3 359 356 348 345 343 337 332 327 323 317 310 304 300 299 298 296